This is the latest recevied weather packets stored in our database for station/object KP4FJC. If no packets are shown the sender has not sent any weather packets the latest 10 day(s).
| Time | Temp. | Humidity | Pressure | Rain* | Wind** | Luminosity | Snow |
|---|---|---|---|---|---|---|---|
| 1777586524 | 26.67° C | 90% | 1013.4 hPa | 0 mm | - | 7 W/m² | - |
| 1777586220 | 26.67° C | 89% | 1013.4 hPa | 0 mm | - | 8 W/m² | - |
| 1777585917 | 26.67° C | 89% | 1013.3 hPa | 1.78 mm | - | 9 W/m² | - |
| 1777585612 | 26.67° C | 88% | 1013.5 hPa | 1.78 mm | - | 12 W/m² | - |
| 1777585308 | 26.67° C | 87% | 1013.4 hPa | 0 mm | - | 12 W/m² | - |
| 1777585002 | 26.67° C | 87% | 1013.2 hPa | 0 mm | - | 15 W/m² | - |
| 1777584699 | 26.67° C | 87% | 1013.1 hPa | 0 mm | - | 16 W/m² | - |
| 1777584397 | 26.67° C | 86% | 1013.1 hPa | 0 mm | - | 14 W/m² | - |
| 1777584093 | 27.22° C | 85% | 1013 hPa | 0 mm | - | 12 W/m² | - |
| 1777583792 | 27.22° C | 85% | 1013.2 hPa | 0 mm | - | 14 W/m² | - |
| 1777583487 | 27.22° C | 84% | 1013.2 hPa | 0 mm | - | 12 W/m² | - |
| 1777583181 | 27.22° C | 84% | 1013 hPa | 0 mm | - | 13 W/m² | - |
| 1777582877 | 27.22° C | 84% | 1013.1 hPa | 0 mm | - | 13 W/m² | - |
| 1777582575 | 27.22° C | 84% | 1012.9 hPa | 0 mm | - | 14 W/m² | - |
| 1777582270 | 27.22° C | 85% | 1012.8 hPa | 0 mm | - | 15 W/m² | - |
| 1777581967 | 27.22° C | 85% | 1012.8 hPa | 0 mm | - | 18 W/m² | - |
| 1777581663 | 27.22° C | 84% | 1012.9 hPa | 0 mm | - | 21 W/m² | - |
| 1777581356 | 27.78° C | 81% | 1012.8 hPa | 0 mm | - | 32 W/m² | - |
| 1777581052 | 27.78° C | 81% | 1012.7 hPa | 0 mm | - | 33 W/m² | - |
| 1777580751 | 27.78° C | 81% | 1012.4 hPa | 0 mm | - | 37 W/m² | - |
| 1777580448 | 27.78° C | 80% | 1012.5 hPa | 0 mm | - | 36 W/m² | - |
| 1777580148 | 27.78° C | 79% | 1012.6 hPa | 0 mm | - | 42 W/m² | - |
| 1777579845 | 27.78° C | 79% | 1012.5 hPa | 0 mm | - | 43 W/m² | - |
| 1777579544 | 28.33° C | 79% | 1012.5 hPa | 0 mm | - | 41 W/m² | - |
| 1777579244 | 28.33° C | 78% | 1012.6 hPa | 0 mm | - | 45 W/m² | - |
* Rain latest hour (hover to see other rain measurements)
** Current wind speed in m/s (hover to see current wind gust speed)